2024-173K

Last updated on Fri Oct 04 2024 00:02:05 GMT+0000 (Coordinated Universal Time)

1 61236U 24173K 24277.52389078 .00056053 00000+0 21170-2 0 9990 2 61236 97.4418 350.3145 0020434 265.7811 94.1093 15.26607572 1443
UTC large
Height (km)
Speed (km/s)
/
Latitude / Longitude
Inclination (degrees)
Orbital Period (minutes)
Azimuth
Elevation
Range (km)
Doppler Factor

Next 0 passes for location: London (51.5072 / 0.1276)

Sorry there are no passes over London.